FGRST (GLAST)

Last updated on Thu Sep 10 2026 00:02:50 GMT+0000 (Coordinated Universal Time)

1 33053U 08029A 26252.35763633 .00002801 00000+0 97833-4 0 9990 2 33053 25.5836 339.8732 0007562 238.0345 121.9458 15.24325929 8544
UTC large
Height (km)
Speed (km/s)
/
Latitude / Longitude
Inclination (degrees)
Orbital Period (minutes)
Azimuth
Elevation
Range (km)
Doppler Factor

Next 0 passes for location: London (51.5072 / 0.1276)

No passes found over London.
FGRST (GLAST)